#timestamp,LO_Frequency,Hit,StdDev 
1664499615.4,286046997.6,N
1664499635.3,286046997.7,N
1664499655.1,286046996.8,N
1664499675.8,286046997.9,N
1664499695.7,286046995.7,N
1664499715.5,286046997.4,N
1664499735.4,286046997.0,N
1664499755.2,286046997.7,N
1664499775.0,286046996.5,N
1664499775.9,286046996.5,N
1664499795.8,286046999.1,N
1664499815.6,286046997.4,N
1664499835.4,286046996.5,Y
1664499855.3,286047000.1,P
1664499875.1,286047001.4,N
1664499895.9,286047002.2,N
1664499915.7,286047003.9,N
1664499935.5,286047004.0,N
1664499955.4,286047001.5,N
1664499975.2,286047001.5,N
1664499995.1,286047002.2,N
1664499996.0,286047002.2,N
1664500015.8,286047000.5,N
1664500035.6,286047000.7,N
1664500055.5,286047001.2,N
1664500075.3,286047000.3,N
1664500095.1,286046998.9,N
1664500115.9,286047000.7,N
1664500135.7,286047000.6,N
1664500155.6,286047000.0,N
1664500175.4,286047000.7,N
1664500195.2,286047000.6,N
1664500215.1,286046998.3,N
1664500216.0,286046998.3,N
1664500235.8,286047000.0,N
1664500255.6,286046996.5,N
1664500275.5,286046998.4,N
1664500295.3,286047002.8,N
1664500315.2,286047000.4,N
1664500335.0,286047002.6,N
1664500335.9,286047002.6,N
1664500355.7,286047001.0,N
1664500375.6,286046999.9,N
1664500395.4,286047001.0,N
1664500415.3,286046999.6,N
1664500435.1,286046997.2,N
1664500436.0,286046997.2,N
1664500455.8,286046999.0,N
1664500475.7,286047001.1,N
1664500495.5,286047000.8,N
1664500515.4,286047001.0,N
1664500535.2,286047000.5,N
1664500555.0,286047000.4,N
1664500555.9,286047000.4,N
1664500575.8,286047001.2,N
1664500595.6,286047000.9,N
1664500615.4,286047000.1,N
1664500635.3,286046999.7,N
1664500655.1,286047001.8,N
1664500675.9,286047001.4,N
1664500695.7,286047004.1,N
1664500715.5,286047004.8,N
1664500735.4,286047001.4,N
1664500755.2,286047004.1,N
1664500775.0,286047003.6,N
1664500775.9,286047003.6,N
1664500795.8,286047003.0,N
1664500815.6,286047004.0,N
1664500835.5,286047001.9,N
1664500855.3,286046999.8,N
1664500875.1,286047001.6,N
1664500895.9,286047001.9,N
1664500915.7,286047000.9,N
1664500935.6,286047000.8,N
1664500955.4,286046998.9,N
1664500975.2,286047000.0,N
1664500995.1,286047000.4,N
1664500996.0,286047000.4,N
1664501015.8,286047001.1,N
1664501035.7,286047002.8,N
1664501055.5,286046999.7,N
1664501075.3,286047001.4,N
1664501095.2,286047003.6,N
1664501115.9,286047003.9,N
1664501135.8,286047002.0,N
1664501155.6,286047004.0,N
1664501175.4,286047003.4,N
1664501195.3,286047003.2,N
1664501215.1,286047007.5,Y
1664501235.9,286047005.8,P
1664501255.7,286047002.9,N
1664501275.5,286047005.9,P
1664501295.4,286047005.0,N
1664501315.2,286047005.2,Y
1664501335.1,286047001.2,P
1664501336.0,286047001.2,N
1664501355.8,286046998.1,N
1664501375.6,286046998.2,N
1664501395.5,286046998.7,N
1664501415.3,286047001.2,N
1664501435.1,286046998.4,N
1664501455.9,286046998.6,N
1664501475.7,286046998.5,N
1664501495.6,286047001.2,N
1664501515.4,286047001.1,N
1664501535.2,286046998.6,N
1664501555.1,286046998.5,N
1664501556.0,286046998.5,N
1664501575.8,286046998.6,N
1664501595.6,286047000.9,N
1664501615.5,286046998.1,N
1664501635.3,286046998.3,N
1664501655.2,286046999.4,N
1664501675.9,286046998.8,N
1664501695.7,286046996.5,N
1664501715.6,286046996.8,N
1664501735.4,286046995.0,N
1664501755.2,286046996.0,N
1664501775.1,286046995.7,N
1664501776.0,286046995.7,N
1664501795.8,286046995.3,N
1664501815.7,286046997.7,N
1664501835.5,286046997.7,N
1664501855.3,286046996.6,N
1664501875.2,286046998.0,N
1664501895.0,286046995.5,N
1664501895.9,286046995.5,N
1664501915.8,286046994.5,Y
1664501935.6,286046996.3,P
1664501955.4,286046995.6,P
1664501975.3,286046995.9,P
1664501995.1,286046996.2,Y
1664502015.8,286046998.7,P
1664502035.7,286046996.6,P
1664502055.5,286046997.3,N
1664502075.4,286046995.3,Y
1664502095.2,286046999.4,P
1664502145.1,286046998.2,E
1664502155.9,286047000.9,N
1664502175.7,286047000.4,P
1664502195.6,286047000.5,N
1664502215.4,286047000.9,Y
1664502235.2,286046998.5,P
1664502255.1,286046998.2,N
1664502286.0,286046998.6,E
1664502295.0,286047000.5,N
1664502295.9,286047000.5,P
1664502315.8,286047002.4,P
1664502335.6,286047000.4,N
1664502355.5,286047000.9,N
1664502375.3,286047000.6,N
1664502395.1,286047000.3,N
1664502415.9,286046998.1,N
1664502435.7,286047000.7,N
1664502455.6,286047000.3,N
1664502475.4,286046999.1,N
1664502495.2,286046999.2,N
1664502515.1,286046999.5,N
1664502516.0,286046999.5,N
1664502535.8,286046999.3,N
1664502555.7,286046998.8,N
1664502575.5,286046996.6,Y
1664502595.3,286046999.4,P
1664502615.2,286046999.4,N
1664502635.0,286046999.5,N
1664502635.9,286046999.5,N
1664502655.8,286046997.5,Y
1664502675.6,286046997.0,P
1664502695.4,286046997.2,N
1664502745.3,286046998.8,E
1664502755.2,286046998.5,N
1664502775.1,286047000.8,P
1664502776.0,286047000.8,N
1664502795.8,286047000.7,N
1664502815.6,286047000.5,N
1664502835.5,286046998.6,N
1664502855.3,286046998.2,N
1664502875.1,286047000.6,N
1664502895.9,286047000.7,N
1664502915.7,286047000.3,N
1664502935.6,286047000.0,N
1664502955.4,286047000.7,N
1664502975.2,286047001.0,N
1664502995.1,286047001.2,N
1664502996.0,286047001.2,N
1664503015.8,286046998.2,N
1664503035.6,286046998.9,N
1664503055.5,286046999.5,N
1664503075.3,286046996.5,Y
1664503095.2,286046996.6,P
1664503115.9,286046999.0,N
1664503135.7,286046996.7,N
1664503155.6,286046997.0,N
1664503175.4,286046997.8,N
1664503195.3,286046997.2,N
